Weather History for Findlay, OH

Change the Weather History Date:

Monday, March 11, 2013

  Actual Average Record
Temperature  
Mean Temperature 47 °F -  
Max Temperature 57 °F 43 °F 74 °F (1990)
Min Temperature 36 °F 27 °F 6 °F (1969)
Degree Days  
Heating Degree Days 18    
Moisture  
Dew Point 41 °F    
Average Humidity 80    
Maximum Humidity 88    
Minimum Humidity 51    
Precipitation  
Precipitation 0.38 in - - ()
Sea Level Pressure  
Sea Level Pressure 29.67 in    
Wind  
Wind Speed 23 mph (SSW)    
Max Wind Speed 33 mph    
Max Gust Speed 46 mph    
Visibility 9 miles    
Events Rain    
Averages and records for this station are not official NWS values.
T = Trace of Precipitation, MM = Missing Value Source: NWS Daily Summary

Daily Weather History Graph

Daily Weather History Graph

Search for Another Location

Airport:

Trip Planner

Search our weather history database for the weather conditions in past years. The results will help you decide how hot, cold, wet, or windy it might be!

Date:

Astronomy

Mar. 11, 2013 Rise Set
Actual Time 7:52 AM EDT 7:37 PM EDT
Civil Twilight 7:25 AM EDT 8:04 PM EDT
Nautical Twilight 6:53 AM EDT 8:36 PM EDT
Astronomical Twilight 6:21 AM EDT 9:08 PM EDT
Moon 7:25 AM EDT (3/11) 7:48 PM EDT (3/11)
Length of Visible Light 12h 39m
Length of Day
11h 44m
Waning Crescent, 0% of the Moon is Illuminated
Mar 11
Waning Crescent
Mar 11
New
Mar 19
First Quarter
Mar 27
Full
Apr 3
Last Quarter

Hourly Weather History & Observations

Time (EDT) Temp. Windchill Dew Point Humidity Pressure Visibility Wind Dir Wind Speed Gust Speed Precip Events Conditions
12:53 AM 57.9 °F - 39.9 °F 51% 29.80 in 10.0 mi SSW 24.2 mph 34.5 mph 0.00 in Rain Light Rain
1:53 AM 54.0 °F - 43.0 °F 66% 29.78 in 10.0 mi South 17.3 mph - 0.00 in Rain Light Rain
3:53 AM 52.0 °F - 45.0 °F 77% 29.75 in 10.0 mi South 20.7 mph 28.8 mph 0.04 in   Overcast
4:53 AM 52.0 °F - 46.9 °F 83% 29.75 in 7.0 mi South 27.6 mph 36.8 mph 0.03 in Rain Light Rain
5:53 AM 51.1 °F - 46.9 °F 86% 29.73 in 10.0 mi South 20.7 mph 27.6 mph 0.02 in   Overcast
6:53 AM 51.1 °F - 46.0 °F 83% 29.75 in 10.0 mi South 17.3 mph 28.8 mph 0.00 in   Overcast
7:53 AM 51.1 °F - 46.0 °F 83% 29.72 in 10.0 mi South 33.4 mph 41.4 mph 0.04 in Rain Light Rain
8:53 AM 50.0 °F - 46.0 °F 86% 29.74 in 7.0 mi South 25.3 mph 38.0 mph 0.05 in Rain Light Rain
9:53 AM 50.0 °F - 45.0 °F 83% 29.72 in 10.0 mi SSE 19.6 mph 28.8 mph 0.02 in Rain Light Rain
10:53 AM 52.0 °F - 44.1 °F 74% 29.70 in 10.0 mi SSE 18.4 mph 31.1 mph 0.00 in   Overcast
11:53 AM 52.0 °F - 44.1 °F 74% 29.64 in 10.0 mi SSE 20.7 mph 31.1 mph N/A   Overcast
12:53 PM 51.1 °F - 45.0 °F 80% 29.62 in 8.0 mi SSE 18.4 mph 27.6 mph 0.01 in Rain Light Rain
1:53 PM 51.1 °F - 46.0 °F 83% 29.57 in 10.0 mi SSE 19.6 mph 27.6 mph 0.04 in Rain Light Rain
2:53 PM 54.0 °F - 46.9 °F 77% 29.51 in 10.0 mi South 31.1 mph 38.0 mph 0.01 in   Overcast
3:00 PM 53.6 °F - 46.4 °F 77% 29.51 in 10.0 mi South 29.9 mph 39.1 mph N/A   Overcast
3:43 PM 51.8 °F - 48.2 °F 88% 29.54 in 1.8 mi SW 31.1 mph 44.9 mph 0.07 in Rain Heavy Rain
3:50 PM 48.2 °F - 44.6 °F 87% 29.55 in 2.0 mi WSW 23.0 mph 46.0 mph 0.09 in Rain Light Rain
3:53 PM 48.9 °F - 44.1 °F 83% 29.55 in 4.0 mi WSW 25.3 mph 46.0 mph 0.09 in Rain Light Rain
3:55 PM 48.2 °F - 44.6 °F 87% 29.55 in 7.0 mi WSW 27.6 mph 39.1 mph 0.00 in Rain Light Rain
4:53 PM 48.0 °F - 44.1 °F 86% 29.56 in 10.0 mi SW 18.4 mph 25.3 mph 0.03 in Rain Light Rain
5:34 PM 48.2 °F - 42.8 °F 82% 29.57 in 10.0 mi WSW 19.6 mph 26.5 mph 0.00 in   Overcast
5:53 PM 46.9 °F - 42.1 °F 83% 29.59 in 10.0 mi WSW 25.3 mph 29.9 mph 0.00 in   Overcast
6:31 PM 46.4 °F 38.7 °F 39.2 °F 76% 29.62 in 10.0 mi West 20.7 mph 27.6 mph N/A   Overcast
6:39 PM 44.6 °F 35.7 °F 39.2 °F 81% 29.63 in 10.0 mi West 24.2 mph 31.1 mph N/A   Overcast
6:53 PM 43.0 °F 33.3 °F 37.9 °F 82% 29.65 in 10.0 mi WSW 25.3 mph 31.1 mph N/A   Overcast
7:03 PM 42.8 °F 33.8 °F 37.4 °F 81% 29.65 in 10.0 mi WSW 21.9 mph 32.2 mph N/A   Overcast
7:53 PM 42.1 °F 33.9 °F 35.1 °F 76% 29.67 in 10.0 mi WSW 17.3 mph 29.9 mph N/A   Overcast
8:53 PM 39.0 °F 28.8 °F 33.1 °F 79% 29.70 in 10.0 mi WSW 21.9 mph 27.6 mph N/A   Partly Cloudy
9:24 PM 39.2 °F 30.8 °F 33.8 °F 81% 29.72 in 10.0 mi WSW 15.0 mph 24.2 mph N/A   Overcast
9:53 PM 37.9 °F 27.6 °F 32.0 °F 79% 29.74 in 10.0 mi WSW 20.7 mph 27.6 mph N/A   Overcast
10:40 PM 37.4 °F 26.6 °F 30.2 °F 75% 29.75 in 10.0 mi WSW 21.9 mph 27.6 mph N/A   Overcast
10:53 PM 37.9 °F 27.6 °F 30.9 °F 76% 29.76 in 10.0 mi WSW 20.7 mph 25.3 mph N/A   Overcast
11:06 PM 37.4 °F 26.9 °F 32.0 °F 81% 29.77 in 10.0 mi West 20.7 mph 25.3 mph N/A   Overcast
11:53 PM 36.0 °F 26.0 °F 30.9 °F 82% 29.78 in 10.0 mi WSW 17.3 mph 23.0 mph N/A   Overcast